Flag for Cyprus Weather past 2 weeks in Paphos, Cyprus

Now
77 °F

Passing clouds.


Feels Like: 79 °F
Forecast: 60 / 76 °F
Wind: 14 mph from Southeast

Location: Paphos Airport

Current Time: Oct 25, 2014 at 10:13:54 AM

Latest Report: Oct 25, 2014 at 9:30 AM


Visibility: N/A

Pressure: 30.01 "Hg

Humidity: 69%

Dew point: 66 °F

Location of PaphosLocation

Historic Weather in Paphos — Graph

°F

Paphos temperature yesterday

Maximum temperature yesterday: 81 °F (at 11:00 AM)
Minimum temperature yesterday: 70 °F (at 12:00 AM)
Average temperature yesterday: 75 °F

Past Weeks' High & Low Weather Summary

 TemperatureHumidityPressure
High82 °F (Oct 10, 2:00 PM)88% (Oct 10, 11:30 PM)30.09 "Hg (Oct 10, 11:30 PM)
Low59 °F (Oct 21, 2:00 AM)25% (Oct 20, 10:30 AM)29.77 "Hg (Oct 19, 5:30 AM)
Average72 °F68%29.95 "Hg
* Reported Oct 10 9:00 AM — Oct 25 9:00 AM, Paphos, Weather by CustomWeather, © 2014

Note: Actual official high and low records may vary slightly from our data, if they occured in-between our weather recording intervals... More about our weather records

Advertising

Paphos weather history for previous 24 hours

 ConditionsComfort  
Time TempWeatherWind HumidityBarometerVisibility
9:00 AM
Oct 25
77 °FPassing clouds.9 mph69%29.98 "HgN/A
8:30 AM73 °FPassing clouds.9 mph69%29.98 "HgN/A
8:00 AM72 °FPassing clouds.9 mph69%29.98 "HgN/A
7:30 AM70 °FPassing clouds.9 mph64%29.98 "HgN/A
7:00 AM70 °FPassing clouds.9 mph60%29.98 "HgN/A
6:30 AM70 °FPassing clouds.10 mph57%29.95 "HgN/A
6:00 AM68 °FPassing clouds.10 mph56%29.95 "HgN/A
5:30 AM66 °FMild.8 mph60%29.98 "HgN/A
5:00 AM66 °FMild.5 mph60%29.98 "HgN/A
4:30 AM66 °FMild.7 mph60%29.95 "HgN/A
4:00 AM66 °FMild.8 mph60%29.98 "HgN/A
3:30 AM68 °FMild.9 mph60%29.98 "HgN/A
3:00 AM68 °FPassing clouds.9 mph60%29.98 "HgN/A
2:30 AM68 °FPassing clouds.10 mph69%29.98 "HgN/A
2:00 AM68 °FPassing clouds.10 mph73%30.01 "HgN/A
1:30 AM70 °FPassing clouds.9 mph69%30.01 "HgN/A
1:00 AM70 °FPassing clouds.10 mph73%30.01 "HgN/A
12:30 AM70 °FPassing clouds.9 mph73%30.01 "HgN/A
12:00 AM70 °FPassing clouds.9 mph78%30.01 "HgN/A
11:30 PM
Oct 24
70 °FPassing clouds.10 mph78%30.01 "HgN/A
11:00 PM70 °FPassing clouds.9 mph83%30.04 "HgN/A
10:30 PM72 °FPassing clouds.9 mph78%30.01 "HgN/A
10:00 PM72 °FPassing clouds.9 mph78%30.01 "HgN/A
9:30 PM72 °FPassing clouds.8 mph83%30.01 "HgN/A
9:00 PM72 °FPassing clouds.6 mph83%30.01 "HgN/A
8:30 PM73 °FPassing clouds.7 mph78%30.01 "HgN/A
8:00 PM73 °FPassing clouds.6 mph78%30.01 "HgN/A
7:30 PM75 °FPassing clouds.6 mph78%30.01 "HgN/A
7:00 PM75 °FPassing clouds.5 mph78%29.98 "HgN/A
6:30 PM77 °FPassing clouds.6 mph74%29.98 "HgN/A
6:00 PM77 °FPassing clouds.6 mph74%29.98 "HgN/A
5:30 PM77 °FPassing clouds.6 mph74%29.98 "HgN/A
5:00 PM79 °FPassing clouds.6 mph70%29.98 "HgN/A
4:30 PM81 °FPassing clouds.8 mph66%29.98 "HgN/A
4:00 PM81 °FPassing clouds.8 mph66%29.98 "HgN/A
3:30 PM81 °FPassing clouds.9 mph70%29.98 "HgN/A
3:00 PM81 °FPassing clouds.8 mph70%30.01 "HgN/A
2:30 PM81 °FPassing clouds.7 mph66%30.01 "HgN/A
2:00 PM81 °FScattered clouds.8 mph66%30.01 "HgN/A
1:30 PM81 °FScattered clouds.8 mph66%30.01 "HgN/A
1:00 PM81 °FScattered clouds.8 mph66%30.01 "HgN/A
12:30 PM81 °FScattered clouds.8 mph62%30.01 "HgN/A
12:00 PM81 °FScattered clouds.7 mph62%30.01 "HgN/A
11:30 AM81 °FPassing clouds.8 mph62%30.01 "HgN/A
11:00 AM81 °FPassing clouds.8 mph62%30.01 "HgN/A
10:30 AM79 °FPassing clouds.9 mph65%30.01 "HgN/A
10:00 AM79 °FScattered clouds.7 mph65%30.01 "HgN/A
Weather by CustomWeather, © 2014

See weather overviewHow to use our weather pages